When you browse on this site, cookies collect data to enhance your experience and personalize the content and advertising you see.
Visit our Privacy Policy to learn more. By continuing to use the site, you agree to this use of cookies and data.
  • In United Kingdom
  • List of Countries
  • For 7 days
  • Water Temperature
  • Weather Map
  • Weather Widgets
  • user-avatar
    Login

    Hourly Weather Dikhil

    Today, 20 September, Friday

    Time Temperature Precipitation Wind Pressure Humidity
    00:00 +36°C° 0 mm 3 mps 715 mmHg 45%
    01:00 +35°C° 0 mm 3 mps 714 mmHg 46%
    02:00 +35°C° 0 mm 2 mps 714 mmHg 47%
    03:00 +34°C° 0 mm 2 mps 713 mmHg 47%
    04:00 +34°C° 0 mm 2 mps 714 mmHg 47%
    05:00 +33°C° 0 mm 1 mps 714 mmHg 47%
    06:00 +32°C° 0 mm 1 mps 715 mmHg 47%
    07:00 +33°C° 0 mm 1 mps 715 mmHg 43%
    08:00 +35°C° 0 mm 2 mps 715 mmHg 38%
    09:00 +36°C° 0 mm 2 mps 715 mmHg 35%
    10:00 +37°C° 0 mm 2 mps 715 mmHg 33%
    11:00 +38°C° 0 mm 2 mps 715 mmHg 30%
    12:00 +39°C° 0 mm 2 mps 714 mmHg 28%
    13:00 +40°C° 0 mm 2 mps 714 mmHg 27%
    14:00 +40°C° 0 mm 2 mps 713 mmHg 25%
    15:00 +40°C° 0 mm 2 mps 712 mmHg 24%
    16:00 +40°C° 0.1 mm 2 mps 712 mmHg 26%
    17:00 +39°C° 0.1 mm 3 mps 713 mmHg 27%
    18:00 +39°C° 0.1 mm 3 mps 713 mmHg 29%
    19:00 +39°C° 0 mm 3 mps 713 mmHg 31%
    20:00 +38°C° 0 mm 2 mps 714 mmHg 33%
    21:00 +38°C° 0 mm 2 mps 714 mmHg 34%
    22:00 +37°C° 0 mm 2 mps 714 mmHg 41%
    23:00 +36°C° 0 mm 3 mps 714 mmHg 47%

    Tomorrow, 21 September, Saturday

    Time Temperature Precipitation Wind Pressure Humidity
    00:00 +35°C° 0 mm 3 mps 713 mmHg 53%
    01:00 +35°C° 0 mm 3 mps 713 mmHg 54%
    02:00 +35°C° 0 mm 2 mps 713 mmHg 54%
    03:00 +35°C° 0 mm 2 mps 712 mmHg 55%
    04:00 +34°C° 0.2 mm 2 mps 713 mmHg 53%
    05:00 +34°C° 0.2 mm 3 mps 713 mmHg 51%
    06:00 +34°C° 0.2 mm 4 mps 714 mmHg 49%
    07:00 +34°C° 1.1 mm 4 mps 714 mmHg 49%
    08:00 +33°C° 1.1 mm 4 mps 715 mmHg 49%
    09:00 +33°C° 1.1 mm 4 mps 715 mmHg 50%
    10:00 +34°C° 0.1 mm 4 mps 715 mmHg 44%
    11:00 +36°C° 0.1 mm 3 mps 715 mmHg 39%
    12:00 +37°C° 0.1 mm 2 mps 714 mmHg 34%
    13:00 +38°C° 0 mm 2 mps 714 mmHg 32%
    14:00 +39°C° 0 mm 3 mps 713 mmHg 29%
    15:00 +40°C° 0 mm 3 mps 713 mmHg 27%
    16:00 +40°C° 0 mm 4 mps 713 mmHg 29%
    17:00 +39°C° 0 mm 5 mps 712 mmHg 31%
    18:00 +38°C° 0 mm 6 mps 712 mmHg 33%
    19:00 +37°C° 0.1 mm 4 mps 713 mmHg 33%
    20:00 +37°C° 0.1 mm 3 mps 713 mmHg 33%
    21:00 +36°C° 0.1 mm 1 mps 714 mmHg 33%
    22:00 +35°C° 0 mm 1 mps 714 mmHg 36%
    23:00 +36°C° 0 mm 2 mps 714 mmHg 39%

    Day after tomorrow, 22 September, Sunday

    Time Temperature Precipitation Wind Pressure Humidity
    00:00 +35°C° 0 mm 2 mps 714 mmHg 43%
    01:00 +35°C° 0 mm 2 mps 713 mmHg 44%
    02:00 +35°C° 0 mm 2 mps 713 mmHg 45%
    03:00 +33°C° 0 mm 1 mps 713 mmHg 46%
    04:00 +34°C° 0 mm 2 mps 713 mmHg 45%
    05:00 +32°C° 0 mm 2 mps 714 mmHg 44%
    06:00 +33°C° 0 mm 3 mps 714 mmHg 43%
    07:00 +34°C° 0 mm 3 mps 715 mmHg 40%
    08:00 +35°C° 0 mm 4 mps 715 mmHg 38%
    09:00 +36°C° 0 mm 4 mps 715 mmHg 35%
    10:00 +37°C° 0 mm 4 mps 715 mmHg 33%
    11:00 +38°C° 0 mm 3 mps 715 mmHg 32%
    12:00 +39°C° 0 mm 3 mps 715 mmHg 30%
    13:00 +39°C° 0 mm 3 mps 714 mmHg 28%
    14:00 +40°C° 0 mm 2 mps 713 mmHg 25%
    15:00 +40°C° 0 mm 2 mps 712 mmHg 23%
    16:00 +40°C° 0 mm 2 mps 713 mmHg 23%
    17:00 +40°C° 0 mm 3 mps 713 mmHg 24%
    18:00 +40°C° 0 mm 3 mps 713 mmHg 25%
    19:00 +40°C° 0 mm 4 mps 713 mmHg 28%
    20:00 +38°C° 0 mm 4 mps 714 mmHg 32%
    21:00 +37°C° 0 mm 5 mps 714 mmHg 35%
    22:00 +37°C° 0 mm 4 mps 714 mmHg 36%
    23:00 +37°C° 0 mm 3 mps 714 mmHg 38%

    23 September, Monday

    Time Temperature Precipitation Wind Pressure Humidity
    00:00 +36°C° 0 mm 2 mps 714 mmHg 39%
    01:00 +36°C° 0 mm 2 mps 714 mmHg 41%
    02:00 +35°C° 0 mm 2 mps 714 mmHg 43%
    03:00 +34°C° 0 mm 1 mps 713 mmHg 45%
    04:00 +34°C° 0 mm 2 mps 714 mmHg 44%
    05:00 +34°C° 0 mm 2 mps 714 mmHg 43%
    06:00 +34°C° 0 mm 3 mps 714 mmHg 42%
    07:00 +35°C° 0 mm 4 mps 715 mmHg 38%
    08:00 +36°C° 0 mm 4 mps 715 mmHg 35%
    09:00 +37°C° 0 mm 5 mps 716 mmHg 31%
    10:00 +38°C° 0 mm 4 mps 715 mmHg 30%
    11:00 +38°C° 0 mm 4 mps 715 mmHg 28%
    12:00 +40°C° 0 mm 4 mps 715 mmHg 26%
    13:00 +40°C° 0 mm 3 mps 714 mmHg 24%
    14:00 +40°C° 0 mm 3 mps 713 mmHg 22%
    15:00 +41°C° 0 mm 2 mps 713 mmHg 20%
    16:00 +41°C° 0 mm 2 mps 713 mmHg 21%
    17:00 +40°C° 0 mm 2 mps 713 mmHg 21%
    18:00 +40°C° 0 mm 3 mps 713 mmHg 21%
    19:00 +39°C° 0 mm 3 mps 713 mmHg 27%
    20:00 +38°C° 0 mm 4 mps 713 mmHg 32%
    21:00 +37°C° 0 mm 4 mps 714 mmHg 37%
    22:00 +37°C° 0 mm 4 mps 714 mmHg 39%
    23:00 +36°C° 0 mm 4 mps 714 mmHg 41%

    24 September, Tuesday

    Time Temperature Precipitation Wind Pressure Humidity
    00:00 +36°C° 0 mm 3 mps 714 mmHg 42%
    01:00 +35°C° 0 mm 2 mps 713 mmHg 43%
    02:00 +35°C° 0 mm 2 mps 713 mmHg 43%
    03:00 +34°C° 0 mm 1 mps 713 mmHg 43%
    04:00 +34°C° 0 mm 1 mps 713 mmHg 42%
    05:00 +34°C° 0 mm 2 mps 714 mmHg 41%
    06:00 +34°C° 0 mm 3 mps 714 mmHg 39%
    07:00 +35°C° 0 mm 3 mps 715 mmHg 36%
    08:00 +36°C° 0 mm 4 mps 715 mmHg 33%
    09:00 +37°C° 0 mm 5 mps 716 mmHg 30%
    10:00 +38°C° 0 mm 4 mps 715 mmHg 28%
    11:00 +40°C° 0 mm 4 mps 715 mmHg 27%
    12:00 +41°C° 0 mm 4 mps 715 mmHg 25%
    13:00 +40°C° 0 mm 3 mps 714 mmHg 23%
    14:00 +42°C° 0 mm 3 mps 713 mmHg 22%
    15:00 +41°C° 0 mm 2 mps 712 mmHg 21%
    16:00 +42°C° 0 mm 3 mps 712 mmHg 22%
    17:00 +40°C° 0 mm 3 mps 712 mmHg 24%
    18:00 +41°C° 0 mm 4 mps 712 mmHg 25%
    19:00 +39°C° 0 mm 3 mps 713 mmHg 26%
    20:00 +39°C° 0 mm 2 mps 713 mmHg 27%
    21:00 +39°C° 0 mm 1 mps 713 mmHg 28%
    22:00 +38°C° 0 mm 2 mps 713 mmHg 31%
    23:00 +37°C° 0 mm 3 mps 713 mmHg 33%

    25 September, Wednesday

    Time Temperature Precipitation Wind Pressure Humidity
    00:00 +36°C° 0 mm 3 mps 713 mmHg 36%
    01:00 +36°C° 0 mm 3 mps 713 mmHg 37%
    02:00 +35°C° 0 mm 3 mps 713 mmHg 37%
    03:00 +35°C° 0 mm 3 mps 713 mmHg 37%
    04:00 +34°C° 0 mm 2 mps 713 mmHg 38%
    05:00 +34°C° 0 mm 2 mps 714 mmHg 39%
    06:00 +34°C° 0 mm 2 mps 714 mmHg 40%
    07:00 +35°C° 0 mm 2 mps 715 mmHg 37%
    08:00 +36°C° 0 mm 3 mps 715 mmHg 34%
    09:00 +37°C° 0 mm 4 mps 716 mmHg 32%
    10:00 +37°C° 0 mm 3 mps 715 mmHg 30%
    11:00 +38°C° 0 mm 3 mps 715 mmHg 28%
    12:00 +39°C° 0 mm 3 mps 714 mmHg 26%
    13:00 +40°C° 0 mm 3 mps 714 mmHg 24%
    14:00 +40°C° 0 mm 2 mps 713 mmHg 23%
    15:00 +41°C° 0 mm 2 mps 713 mmHg 21%
    16:00 +41°C° 0 mm 4 mps 713 mmHg 25%
    17:00 +40°C° 0 mm 5 mps 713 mmHg 28%
    18:00 +40°C° 0 mm 6 mps 713 mmHg 32%
    19:00 +39°C° 0 mm 6 mps 713 mmHg 35%
    20:00 +38°C° 0 mm 6 mps 714 mmHg 39%
    21:00 +36°C° 0 mm 5 mps 714 mmHg 42%
    22:00 +36°C° 0 mm 5 mps 714 mmHg 44%
    23:00 +35°C° 0 mm 5 mps 714 mmHg 46%
    Show more